Tracking 31027 objects as of 19-Jul-2025
HD Live streaming from Space Station
objects crossing your sky now

STARLINK-4279

Track STARLINK-4279 now!
10-day predictions
STARLINK-4279 is classified as:


NORAD ID: 53018
Int'l Code: 2022-076AJ
Perigee: 545.9 km
Apogee: 547.9 km
Inclination: 53.2 °
Period: 95.4 minutes
Semi major axis: 6917 km
RCS: Unknown
Launch date: July 7, 2022
Source: United States (US)
Launch site: AIR FORCE EASTERN TEST RANGE (AFETR)
Your satellite tracking list
STARLINK-3138
Track 1 satellite(s)




NASA's NSSDC Master Catalog

Two Line Element Set (TLE):
1 53018U 22076AJ  25199.62737097 -.00000256  00000-0  20203-5 0  9997
2 53018  53.2176  55.1261 0001381  93.0618 267.0532 15.08834764167648
Source of the keplerian elements: AFSPC